Flag for Jersey Weather past 2 weeks in Saint Helier, Jersey

Now
64 °F

Passing clouds.


Feels Like: 64 °F
Forecast: 56 / 65 °F
Wind: 15 mph from North

Location: Jersey Airport

Current Time: Jul 31, 2015 at 4:49:48 PM

Latest Report: Jul 31, 2015 at 4:20 PM


Visibility: N/A

Pressure: 30.04 "Hg

Humidity: 60%

Dew point: 50 °F

Location of Saint HelierLocation

Historic Weather in Saint Helier — Graph

°F

Saint Helier temperature yesterday

Maximum temperature yesterday: 63 °F (at 11:20 AM)
Minimum temperature yesterday: 54 °F (at 5:50 AM)
Average temperature yesterday: 59 °F

Past Weeks' High & Low Weather Summary

 TemperatureHumidityPressure
High77 °F (Jul 16, 4:50 PM)100% (Jul 16, 9:20 PM)30.15 "Hg (Jul 16, 9:20 PM)
Low50 °F (Jul 31, 5:20 AM)56% (Jul 30, 3:50 PM)29.59 "Hg (Jul 24, 3:50 PM)
Average62 °F82%29.94 "Hg
* Reported Jul 16 3:20 PM — Jul 31 3:20 PM, Saint Helier, Weather by CustomWeather, © 2015

Note: Actual official high and low records may vary slightly from our data, if they occured in-between our weather recording intervals... More about our weather records

Advertising

Saint Helier weather history for previous 24 hours

 ConditionsComfort  
Time TempWeatherWind HumidityBarometerVisibility
3:20 PM
Fri, Jul 31
64 °FPassing clouds.12 mph60%30.04 "HgN/A
2:50 PM64 °FPassing clouds.12 mph64%30.04 "HgN/A
2:20 PM64 °FPassing clouds.10 mph60%30.07 "HgN/A
1:50 PM63 °FPassing clouds.9 mph73%30.07 "HgN/A
1:20 PM64 °FPassing clouds.9 mph68%30.07 "HgN/A
12:50 PM64 °FPassing clouds.9 mph64%30.07 "HgN/A
12:20 PM63 °FPassing clouds.10 mph68%30.07 "HgN/A
11:50 AM64 °FPassing clouds.3 mph56%30.07 "HgN/A
11:20 AM63 °FPassing clouds.3 mph64%30.07 "HgN/A
10:50 AM63 °FPassing clouds.6 mph68%30.09 "HgN/A
10:20 AM61 °FPassing clouds.7 mph72%30.09 "HgN/A
9:50 AM61 °FPassing clouds.6 mph72%30.09 "HgN/A
9:20 AM59 °FPassing clouds.8 mph72%30.09 "HgN/A
8:20 AM59 °FPassing clouds.7 mph77%30.09 "HgN/A
7:50 AM57 °FPassing clouds.6 mph88%30.09 "HgN/A
7:20 AM57 °FPassing clouds.5 mph82%30.09 "HgN/A
6:50 AM54 °FPassing clouds.6 mph88%30.09 "HgN/A
6:20 AM52 °FPassing clouds.7 mph88%30.09 "HgN/A
5:50 AM52 °FClear.7 mph94%30.09 "Hg10 mi
5:20 AM50 °FClear.6 mph88%30.09 "Hg10 mi
4:50 AM52 °FClear.6 mph82%30.09 "Hg10 mi
4:20 AM54 °FClear.6 mph82%30.09 "Hg10 mi
3:50 AM54 °FClear.6 mph82%30.12 "Hg10 mi
9:20 PM
Thu, Jul 30
55 °FSunny.7 mph77%30.15 "Hg10 mi
8:50 PM55 °FPassing clouds.7 mph77%30.15 "HgN/A
8:20 PM57 °FPassing clouds.6 mph72%30.15 "HgN/A
7:50 PM59 °FPassing clouds.9 mph63%30.15 "HgN/A
7:20 PM61 °FPassing clouds.6 mph63%30.15 "HgN/A
6:50 PM61 °FPassing clouds.7 mph59%30.15 "HgN/A
6:20 PM61 °FPassing clouds.9 mph59%30.15 "HgN/A
5:50 PM61 °FPassing clouds.10 mph59%30.15 "HgN/A
5:20 PM61 °FPassing clouds.10 mph63%30.15 "HgN/A
4:50 PM61 °FPassing clouds.10 mph59%30.15 "HgN/A
4:20 PM63 °FPassing clouds.15 mph56%30.15 "HgN/A
Weather by CustomWeather, © 2015

See weather overviewHow to use our weather pages